N2795J KTMB-KFLL

Flight info

Callsign N2795J
Flight time 0h 26m
Altitude 3000
Route BEZER
Aircraft C172/L-VGDW/C

Departure

Time 2026-05-07 22:10
Airport Miami Executive Airport (KTMB)

Arrival

Time 2026-05-07 22:37
Airport Fort Lauderdale Hollywood International Airport (KFLL)
Time Latitude Longitude Altitude Speed Heading
2026-05-07 21:57 25.64564 -80.42879 9 ft 0 kts 184°
2026-05-07 22:05 25.64540 -80.42878 9 ft 11 kts 175°
2026-05-07 22:05 25.64503 -80.42864 9 ft 9 kts 158°
2026-05-07 22:05 25.64452 -80.42880 9 ft 8 kts 263°
2026-05-07 22:05 25.64448 -80.42960 9 ft 11 kts 269°
2026-05-07 22:06 25.64485 -80.43035 9 ft 12 kts 306°
2026-05-07 22:06 25.64535 -80.43115 9 ft 13 kts 306°
2026-05-07 22:06 25.64594 -80.43198 9 ft 14 kts 307°
2026-05-07 22:06 25.64659 -80.43290 9 ft 15 kts 308°
2026-05-07 22:07 25.64725 -80.43389 9 ft 16 kts 308°
2026-05-07 22:07 25.64797 -80.43491 9 ft 17 kts 307°
2026-05-07 22:07 25.64871 -80.43601 9 ft 17 kts 306°
2026-05-07 22:07 25.64945 -80.43710 9 ft 17 kts 306°
2026-05-07 22:08 25.65019 -80.43812 9 ft 16 kts 311°
2026-05-07 22:08 25.65084 -80.43909 9 ft 13 kts 305°
2026-05-07 22:08 25.65142 -80.43962 9 ft 9 kts 352°
2026-05-07 22:08 25.65189 -80.43964 9 ft 0 kts 356°
2026-05-07 22:09 25.65257 -80.43951 9 ft 12 kts 75°
2026-05-07 22:09 25.65275 -80.43694 9 ft 54 kts 86°
2026-05-07 22:09 25.65291 -80.43228 102 ft 64 kts 92°
2026-05-07 22:10 25.65318 -80.42728 234 ft 66 kts 89°
2026-05-07 22:10 25.65363 -80.42198 359 ft 69 kts 89°
2026-05-07 22:10 25.65401 -80.41655 500 ft 69 kts 88°
2026-05-07 22:10 25.65445 -80.41125 639 ft 70 kts 89°
2026-05-07 22:11 25.65464 -80.40578 759 ft 72 kts 89°
2026-05-07 22:11 25.65477 -80.40010 890 ft 74 kts 90°
2026-05-07 22:11 25.65475 -80.39433 1022 ft 75 kts 90°
2026-05-07 22:11 25.65474 -80.38854 1148 ft 76 kts 91°
2026-05-07 22:12 25.65479 -80.38277 1296 ft 74 kts 90°
2026-05-07 22:12 25.65479 -80.37678 1401 ft 79 kts 92°
2026-05-07 22:12 25.65492 -80.37073 1538 ft 78 kts 90°
2026-05-07 22:12 25.65624 -80.36505 1682 ft 78 kts 62°
2026-05-07 22:13 25.66027 -80.36108 1806 ft 80 kts 22°
2026-05-07 22:13 25.66566 -80.36050 1944 ft 75 kts 342°
2026-05-07 22:13 25.67024 -80.36322 2049 ft 76 kts 315°
2026-05-07 22:13 25.67453 -80.36668 2176 ft 75 kts 319°
2026-05-07 22:14 25.67881 -80.37012 2296 ft 76 kts 319°
2026-05-07 22:14 25.68307 -80.37367 2424 ft 75 kts 318°
2026-05-07 22:14 25.68704 -80.37721 2546 ft 74 kts 317°
2026-05-07 22:14 25.69131 -80.38081 2648 ft 76 kts 317°
2026-05-07 22:15 25.69554 -80.38439 2765 ft 76 kts 323°
2026-05-07 22:15 25.69993 -80.38751 2887 ft 75 kts 324°
2026-05-07 22:15 25.70506 -80.38934 2972 ft 81 kts 354°
2026-05-07 22:15 25.71067 -80.38959 3033 ft 82 kts 355°
2026-05-07 22:16 25.71652 -80.38984 3067 ft 84 kts 354°
2026-05-07 22:16 25.72232 -80.39010 3115 ft 83 kts 354°
2026-05-07 22:16 25.72819 -80.39066 3154 ft 84 kts 352°
2026-05-07 22:16 25.73408 -80.39105 3204 ft 84 kts 354°
2026-05-07 22:17 25.73993 -80.39120 3230 ft 86 kts 354°
2026-05-07 22:17 25.74636 -80.39156 3170 ft 97 kts 354°
2026-05-07 22:17 25.75341 -80.39201 3140 ft 100 kts 354°
2026-05-07 22:17 25.76049 -80.39226 3093 ft 105 kts 355°
2026-05-07 22:18 25.76787 -80.39249 3061 ft 106 kts 357°
2026-05-07 22:18 25.78235 -80.39400 3017 ft 105 kts 349°
2026-05-07 22:18 25.78970 -80.39485 2992 ft 106 kts 356°
2026-05-07 22:19 25.79704 -80.39482 2994 ft 103 kts 354°
2026-05-07 22:19 25.80413 -80.39491 3037 ft 97 kts 355°
2026-05-07 22:19 25.81061 -80.39507 3086 ft 94 kts 356°
2026-05-07 22:19 25.81726 -80.39498 3116 ft 94 kts 358°
2026-05-07 22:20 25.82416 -80.39482 3047 ft 103 kts 355°
2026-05-07 22:20 25.83128 -80.39525 3034 ft 104 kts 354°
2026-05-07 22:20 25.83836 -80.39556 3093 ft 98 kts 356°
2026-05-07 22:20 25.84542 -80.39569 3064 ft 102 kts 355°
2026-05-07 22:21 25.85237 -80.39621 3101 ft 99 kts 353°
2026-05-07 22:21 25.85938 -80.39679 3073 ft 103 kts 352°
2026-05-07 22:21 25.86662 -80.39735 3055 ft 103 kts 353°
2026-05-07 22:21 25.87383 -80.39774 3038 ft 104 kts 356°
2026-05-07 22:22 25.88120 -80.39817 3005 ft 106 kts 353°
2026-05-07 22:22 25.88848 -80.39869 3007 ft 103 kts 354°
2026-05-07 22:22 25.89564 -80.39919 3012 ft 102 kts 353°
2026-05-07 22:22 25.90272 -80.39980 3023 ft 100 kts 352°
2026-05-07 22:23 25.90963 -80.40053 3026 ft 100 kts 353°
2026-05-07 22:23 25.91692 -80.40104 2933 ft 108 kts 355°
2026-05-07 22:23 25.92452 -80.40150 2827 ft 109 kts 356°
2026-05-07 22:23 25.93210 -80.40196 2719 ft 109 kts 353°
2026-05-07 22:24 25.93983 -80.40287 2584 ft 112 kts 353°
2026-05-07 22:24 25.94744 -80.40372 2505 ft 110 kts 353°
2026-05-07 22:24 25.95531 -80.40463 2359 ft 114 kts 352°
2026-05-07 22:24 25.96308 -80.40559 2279 ft 112 kts 353°
2026-05-07 22:25 25.97095 -80.40646 2161 ft 113 kts 353°
2026-05-07 22:25 25.97891 -80.40730 2057 ft 114 kts 354°
2026-05-07 22:25 25.98657 -80.40793 2024 ft 108 kts 353°
2026-05-07 22:25 25.99403 -80.40855 1979 ft 107 kts 353°
2026-05-07 22:26 26.00131 -80.40894 1990 ft 103 kts 355°
2026-05-07 22:26 26.00818 -80.40919 2009 ft 99 kts 356°
2026-05-07 22:26 26.01542 -80.40928 1938 ft 105 kts 359°
2026-05-07 22:26 26.02251 -80.40963 2007 ft 95 kts 355°
2026-05-07 22:27 26.02898 -80.41027 2037 ft 93 kts 354°
2026-05-07 22:27 26.03537 -80.40966 2039 ft 93 kts 30°
2026-05-07 22:27 26.03938 -80.40403 2015 ft 93 kts 64°
2026-05-07 22:27 26.04234 -80.39790 2047 ft 91 kts 63°
2026-05-07 22:28 26.04538 -80.39121 1987 ft 98 kts 64°
2026-05-07 22:28 26.04831 -80.38466 2054 ft 92 kts 64°
2026-05-07 22:28 26.05125 -80.37814 2043 ft 96 kts 63°
2026-05-07 22:28 26.05435 -80.37141 2046 ft 99 kts 62°
2026-05-07 22:29 26.05759 -80.36468 2070 ft 97 kts 63°
2026-05-07 22:29 26.06082 -80.35799 2083 ft 98 kts 63°
2026-05-07 22:29 26.06396 -80.35134 2099 ft 97 kts 63°
2026-05-07 22:29 26.06588 -80.34408 2083 ft 98 kts 89°
2026-05-07 22:30 26.06621 -80.33660 2068 ft 99 kts 90°
2026-05-07 22:30 26.06628 -80.32865 1966 ft 105 kts 92°
2026-05-07 22:30 26.06628 -80.32049 1866 ft 102 kts 95°
2026-05-07 22:30 26.06596 -80.31310 1839 ft 93 kts 97°
2026-05-07 22:31 26.06579 -80.30585 1842 ft 92 kts 93°
2026-05-07 22:31 26.06582 -80.29864 1847 ft 92 kts 91°
2026-05-07 22:31 26.06592 -80.29161 1860 ft 91 kts 92°
2026-05-07 22:31 26.06588 -80.28449 1867 ft 89 kts 94°
2026-05-07 22:32 26.06552 -80.27827 1900 ft 71 kts 97°
2026-05-07 22:32 26.06566 -80.27262 1812 ft 74 kts 92°
2026-05-07 22:32 26.06588 -80.26690 1831 ft 73 kts 90°
2026-05-07 22:32 26.06610 -80.26094 1851 ft 80 kts 92°
2026-05-07 22:33 26.06618 -80.25490 1776 ft 79 kts 92°
2026-05-07 22:33 26.06639 -80.24867 1664 ft 81 kts 94°
2026-05-07 22:33 26.06622 -80.24234 1543 ft 82 kts 97°
2026-05-07 22:33 26.06594 -80.23601 1392 ft 84 kts 97°
2026-05-07 22:34 26.06588 -80.22956 1257 ft 82 kts 94°
2026-05-07 22:34 26.06594 -80.22321 1120 ft 81 kts 94°
2026-05-07 22:34 26.06591 -80.21700 1005 ft 80 kts 94°
2026-05-07 22:34 26.06589 -80.21072 907 ft 81 kts 94°
2026-05-07 22:35 26.06592 -80.20453 819 ft 81 kts 95°
2026-05-07 22:35 26.06595 -80.19820 705 ft 81 kts 95°
2026-05-07 22:35 26.06591 -80.19200 606 ft 80 kts 94°
2026-05-07 22:35 26.06603 -80.18575 512 ft 78 kts 95°
2026-05-07 22:36 26.06618 -80.17966 405 ft 79 kts 96°
2026-05-07 22:36 26.06615 -80.17371 309 ft 76 kts 96°
2026-05-07 22:36 26.06600 -80.16800 217 ft 72 kts 96°
2026-05-07 22:36 26.06593 -80.16257 121 ft 68 kts 98°
2026-05-07 22:37 26.06589 -80.15749 22 ft 63 kts 94°
2026-05-07 22:37 26.06588 -80.15324 6 ft 44 kts 94°
2026-05-07 22:37 26.06586 -80.15029 6 ft 33 kts 106°
2026-05-07 22:37 26.06583 -80.14780 6 ft 33 kts 90°
2026-05-07 22:38 26.06653 -80.14677 6 ft 17 kts 355°
2026-05-07 22:38 26.06668 -80.14683 6 ft 0 kts 325°
2026-05-07 22:39 26.06670 -80.14684 6 ft 3 kts 325°
2026-05-07 22:40 26.06693 -80.14745 6 ft 11 kts 265°
2026-05-07 22:40 26.06695 -80.14843 6 ft 14 kts 270°
2026-05-07 22:40 26.06695 -80.14967 6 ft 17 kts 274°
2026-05-07 22:40 26.06703 -80.15111 6 ft 19 kts 307°
2026-05-07 22:41 26.06770 -80.15221 6 ft 19 kts 269°
2026-05-07 22:41 26.06847 -80.15301 6 ft 17 kts 358°
2026-05-07 22:41 26.06969 -80.15303 6 ft 17 kts 359°
2026-05-07 22:41 26.07080 -80.15324 6 ft 16 kts 316°
2026-05-07 22:42 26.07159 -80.15409 6 ft 16 kts 316°
2026-05-07 22:42 26.07195 -80.15524 6 ft 15 kts 282°
2026-05-07 22:42 26.07252 -80.15604 6 ft 10 kts 315°
2026-05-07 22:42 26.07269 -80.15623 6 ft 0 kts 313°